Showing default

METEOR 3-5, 21655

Orbit data source: Space-Track

METEOR 3-5, 21655 is a payload satellite owned by Rosgidromet (CIS) in LEO that was launched on Thu, 15 Aug 1991 UTC via a TSIKLON-3 launch vehicle from the Plesetsk Missile And Space Complex (PKMTR). Payload-class satellites include a variety of spacecraft equipped with specific instruments for various scientific and technological missions. These include communications satellites like Starlink; space stations such as the ISS; scientific satellites like the Hubble; Earth observation satellites from companies like Planet Labs, Umbra, and HawkEye 360; GPS; miniature CubeSats for education and research; and military/defense satellites.

Loading next visibility...
Identifier
21655, 1991-056A
Orbit
LEO
Country
Flag of CISCIS
Related business
Manufacturer
VNIIEM
Mission
Civil Weather
Bus & Motor
METEOR-3, Unknown motor
Mass
2,150 kg wet, 2,150 kg dry
Launch date (UTC)
1991-08-15 (34 years ago)
Launch vehicle
TSIKLON-3
Launch site
Plesetsk Missile And Space Complex (PKMTR)
Object type
Payload
Rocket body
Debris
Shape & HBR
Cyl + 2 Pan, 6.3 m
Radar Cross Section
21.153 m², Large (>1 m²)

Expand to show TLE details & history
Last TLE update: 10 hours ago

TLE from 10 hours ago
0 METEOR 3-5
1 21655U 91056A   25346.86263062  .00000196  00000-0  47586-3 0  9992
2 21655  82.5561 271.0209 0012199 241.9802 118.0087 13.17153650650049
Epoch: 2025-12-12T20:42Z
TLE epoch observation values (Epoch: 2025-12-12T20:42:11.285Z)
Latitude
-0.00001°
Longitude
-121.32428°
Altitude
1,202.768 km
Speed
7.251 km/s
True Right ascension
18h 04m 05s
True Declination
0° 00' 00"
Sunlit
Object was in daylight at epoch
Visualization orbit readout
Latitude
Unknown
Longitude
Unknown
Altitude
Unknown
Speed
Unknown
Apparent Right ascension
Unknown
Apparent Declination
Unknown
Sunlit
N/A
Visualization observer readout
Local Sidereal Time
05:23:55
Azimuth
Unknown
Elevation
Unknown
Doppler factor
Unknown
Orbital elements
Apogee altitude
1,202.092 km
Perigee altitude
1,183.62 km
Semi-major axis
7,570.993 km
Eccentricity
0.00122
Inclination
82.5561°
RAAN
271.0209°
Arg. of periapsis
241.9802°
True anomaly
118.13203°
Mean anomaly
118.0087°
Eccentric anomaly
118.07037°
Mean motion
3.29469 °/min
Orbital period
109.27 mins
BSTAR
0.00047586
Loading maneuver chart data...
Computing Atmospheric mass density...
Loading historical data...
Loading historical data...
Loading historical data...
Loading historical data...
Loading historical data...
Loading historical data...
Loading historical data...

Documentation

Showing up to 5 results
|